Regional Weather Roundup
Issued by NWS

Home | Current Version | Previous Version | Text Only | Print | Product List | Glossary On
Versions: 1 2 3 4 5 6 7 8 9 10 11 12 13 14 15 16 17 18 19 20 21 22 23 24 25 26 27 28 29 30 31 32 33 34 35 36 37 38 39 40 41 42 43 44 45 46 47 48 49 50
000
ASUS43 KMKX 221100
RWRWI

WISCONSIN REGIONAL WEATHER ROUNDUP
NATIONAL WEATHER SERVICE MILWAUKEE/SULLIVAN WI
600 AM CDT MON MAY 22 2017

NOTE: "FAIR" INDICATES FEW OR NO CLOUDS BELOW 12,000 FEET WITH NO
SIGNIFICANT WEATHER AND/OR OBSTRUCTIONS TO VISIBILITY.

WIZ001-002-006>008-014>016-023>028-221200-
NORTHWEST WISCONSIN

CITY           SKY/WX    TMP DP  RH WIND       PRES   REMARKS
SUPERIOR ARPT  NOT AVBL
ASHLAND        CLOUDY    46  43  89 SW10      29.78S
HAYWARD        LGT RAIN  45  42  89 SW7       29.80F
SIREN          CLOUDY    44  42  95 W7        29.83S
CUMBERLAND     CLOUDY    43  41  93 W7        29.84S
RICE LAKE      CLOUDY    45  43  93 SW5       29.86S
CHETEK         CLOUDY    44  43  97 SW5       29.85S
LADYSMITH      CLOUDY    44  43  96 SW8       29.85S
EAU CLAIRE     NOT AVBL
MENOMONIE      PTCLDY    43  41  93 SW5       29.87S
NEW RICHMOND   CLEAR     42  41  97 SW6       29.86S
OSCEOLA        CLEAR     44  44 100 SW7       29.88S
$$

WIZ003>005-009-010-017-018-221200-
NORTH CENTRAL WISCONSIN

CITY           SKY/WX    TMP DP  RH WIND       PRES   REMARKS
MANITOWISH WTR CLOUDY    43  43 100 W9        29.77S
ARBOR VITAE    DRIZZLE   44  43  95 W7        29.78R
WOODRUFF       DRIZZLE   44  43  95 W7        29.78R
RHINELANDER    CLOUDY    45  42  89 W14       29.80R
EAGLE RIVER    CLOUDY    44  43  98 W9        29.77R
LAND O LAKES   CLOUDY    45  43  93 W8        29.78R
PHILLIPS       DRIZZLE   42  42 100 W6        29.81R
TOMAHAWK       DRIZZLE   42  40  91 W7        29.82S
MEDFORD        DRIZZLE   42  40  94 W12       29.84S
MERRILL        RAIN      43  43  99 W13       29.83S
$$

WIZ029-030-035-036-043>047-221200-
CENTRAL WISCONSIN

CITY           SKY/WX    TMP DP  RH WIND       PRES   REMARKS
WAUSAU         CLOUDY    44  42  93 W10       29.84R
MOSINEE        CLOUDY    43  43 100 W13       29.87R
MARSHFIELD     CLOUDY    44  41  89 SW9       29.86R
STEVENS POINT  CLOUDY    43  40  90 W9        29.88R
WAUPACA        CLOUDY    49  41  74 W14       29.88S
WAUTOMA        CLOUDY    45  40  82 SW8       29.90S
WISC RAPIDS    CLOUDY    45  40  82 W9        29.90R
CAMP DOUGLAS   NOT AVBL
$$

WIZ011>013-019>022-031-037>040-048>050-221200-
NORTHEAST WISCONSIN

CITY           SKY/WX    TMP DP  RH WIND       PRES   REMARKS
ANTIGO         LGT RAIN  42  41  97 W14G21    29.82R
SHAWANO        LGT RAIN  48  42  81 W7        29.85R
OCONTO         CLOUDY    47  42  84 W12G23    29.82S
STURGEON BAY   CLOUDY    48  43  82 W17G23    29.82S
GREEN BAY      CLOUDY    48  43  82 W12       29.86R
MANITOWOC      NOT AVBL
APPLETON       CLOUDY    46  39  76 W13       29.86R
CLINTONVILLE   CLOUDY    45  41  87 W12       29.86R
OSHKOSH        MOCLDY    48  39  71 W12G21    29.88S
$$

WIZ032>034-041-042-053>061-221200-
SOUTHWEST WISCONSIN

CITY           SKY/WX    TMP DP  RH WIND       PRES   REMARKS
LA CROSSE      CLOUDY    47  42  83 SE7       29.92S
SPARTA         PTCLDY    42  40  94 CALM      29.92S
VIROQUA        CLOUDY    43  42  94 MISG      29.93S
BOSCOBEL       CLEAR     41  40  96 CALM      29.97S
PRAIRIE DU CHI CLEAR     43  41  90 S3        29.96F
PLATTEVILLE    CLEAR     44  43  99 SW6       29.98S
$$

WIZ056-057-062-063-064-067-068-221200-
SOUTH CENTRAL WISCONSIN

CITY           SKY/WX    TMP DP  RH WIND       PRES   REMARKS
REEDSBURG      CLEAR     43  42  97 W7        29.93S
BARABOO/DELLS  PTCLDY    42  39  88 W6        29.93S
LONE ROCK      PTCLDY    44  40  85 W3        29.95F
MINERAL POINT  CLEAR     45  43  93 W5        29.96F
MADISON        PTCLDY    46  41  82 VRB5      29.95S
MIDDLETON      CLEAR     44  41  88 SW5       29.96R
WATERTOWN      CLEAR     44  41  88 SW6       29.94S
MONROE         CLEAR     45  41  87 SW9       29.97S
JANESVILLE     CLEAR     45  43  93 SW7       29.97S
$$

WIZ051-052-058>065-066-070>072-221200-
SOUTHEAST WISCONSIN

CITY           SKY/WX    TMP DP  RH WIND       PRES   REMARKS
MILWAUKEE      CLEAR     50  40  68 W9        29.95R
WAUKESHA       CLEAR     46  39  76 SW9       29.95S
MILWAUKEE/TIMM   N/A     46  36  66 SW9G18    29.95R
RACINE         CLEAR     47  40  76 SW7       29.98R
KENOSHA        CLEAR     46  41  82 W12       29.97R
FOND DU LAC    PTCLDY    47  38  71 W8        29.91R
SHEBOYGAN      CLOUDY    48  41  76 W18       29.90R
WEST BEND      MOCLDY    46  39  76 W13       29.91S
JUNEAU         CLEAR     44  40  85 SW9       29.94S
$$

LSZ147-162-221200-
LAKE SUPERIOR

STATION/POSITION TIME  TEMP    WIND        PRES    WAVE
                       AIR SEA DIR/SP/G            HT/PER
                 (UTC) (F)     (DEG/KT/KT) (MB)    (FT/S)
W MID LAKE BUOY  0950   41 37  250/ 16/ 17 1006.5S   2/ 3
DEVILS ISLAND    1000   43     240/ 23/ 25 1007.3S
PORT WING        1040   46     230/  8/ 11 1008.1S
SAXON HARBOR     1040   47     210/  7/ 12 1008.1S
$$

LMZ867-665-643>646-221200-
LAKE MICHIGAN

STATION/POSITION TIME  TEMP    WIND        PRES    WAVE
                       AIR SEA DIR/SP/G            HT/PER
                 (UTC) (F)     (DEG/KT/KT) (MB)    (FT/S)
CHAMBERS ISLAND  1040   47     200/  8/ 12 1008.8R
N MID LAKE BUOY  0950   41 38  200/ 14/ 16 1009.7F   3/ 4
NORTHPORT PIER   1040   47     240/  7/ 13 1008.8S
KEWAUNEE LAKESHO 1030   49     250/  9/ 13 1010.2R
SHEBOYGAN LAKESH 1000   49     250/ 15/ 16 1011.9R
PORT WASHINGTON  1040   50     260/  6/ 13 1014.2R
MILWAUKEE LAKESH 1030   50     270/  8/ 11   N/A
S MID LAKE BUOY  0950   47 44  250/ 14/ 16 1014.6F   2/ 4
KENOSHA   LAKESH 1000   49     260/  8/ 17 1014.9
$$

TC  - TEMPERATURE IN CELSIUS
VSB - VISIBILITY IN STATUTE MILES
WCI - WIND CHILL INDEX
HX  - HEAT INDEX





USA.gov is the U.S. government's official web portal to all federal, state and local government web resources and services.